sat.trackr.live / text

‹ back to catalog

STARLINK-35798

NORAD 66292 · 2025-247AD

PAYLOAD ACTIVE UNKNOWN

§ Identity

Operator
Country
US
Launch date
2025-10-31
Launch site
AFWTR
Launch vehicle
Mass (kg)
RCS (m²)

Purposes: comms

External: N2YO · Heavens-Above · Gunter

§ Orbital elements

Epoch: 2026-05-25T04:39:15.556320Z

Period
93.85 min
Inclination
53.1591°
Eccentricity
0.0001183
Mean motion
15.34406725 rev/d
Perigee alt
461.9 km
Apogee alt
463.5 km
Semi-major
6,840.8 km
B*
4.7075e-4
RAAN
194.8909°
Arg perigee
73.6117°
Mean anomaly
286.5016°
Rev number
3,275

§ Raw data

STARLINK-357981 66292U 25247AD  26145.19393005  .00015565  00000+0  47075-3 0  99902 66292  53.1591 194.8909 0001183  73.6117 286.5016 15.34406725 32751

JSON: /api/v1/satellites/66292 · /tle

For live sub-satellite position, see the globe view (requires WebGL).

§ Visibility from observer

Set your observer location to see the next 7 days of passes ≥ 10°. The values pass through the URL so the page stays shareable.

No JS? Fill the form by hand. The geolocation button needs JavaScript.